TimeCDT,TemperatureF,Dew PointF,Humidity,Sea Level PressureIn,VisibilityMPH,Wind Direction,Wind SpeedMPH,Gust SpeedMPH,PrecipitationIn,Events,Conditions,WindDirDegrees,DateUTC
12:53 AM,80.1,71.1,74,29.95,10.0,NE,4.6,-,N/A,,Clear,50,2013-06-16 05:53:00
1:53 AM,80.1,70.0,71,29.92,10.0,East,4.6,-,0.00,Rain,Light Rain,100,2013-06-16 06:53:00
2:53 AM,79.0,69.1,72,29.93,10.0,Calm,Calm,-,0.00,,Clear,0,2013-06-16 07:53:00
3:53 AM,78.1,70.0,76,29.94,10.0,Calm,Calm,-,N/A,,Mostly Cloudy,0,2013-06-16 08:53:00
4:53 AM,78.1,71.1,79,29.96,10.0,Calm,Calm,-,0.00,,Overcast,0,2013-06-16 09:53:00
5:00 AM,78.8,71.6,78,29.99,10.0,Calm,Calm,-,N/A,Thunderstorm,Thunderstorm,0,2013-06-16 10:00:00
5:21 AM,71.6,68.0,88,29.98,2.0,NNE,4.6,-,0.15,Rain-Thunderstorm,Heavy Thunderstorms and Rain,30,2013-06-16 10:21:00
5:25 AM,71.6,69.8,94,29.98,1.2,ESE,8.1,-,0.31,Rain,Heavy Rain,110,2013-06-16 10:25:00
5:53 AM,72.0,70.0,93,29.97,1.2,Variable,4.6,-,1.11,Rain,Heavy Rain,0,2013-06-16 10:53:00
6:28 AM,71.6,71.6,100,29.99,5.0,NE,8.1,-,0.57,Rain,Light Rain,40,2013-06-16 11:28:00
6:53 AM,73.0,70.0,90,29.98,9.0,East,6.9,-,0.58,Rain,Light Rain,100,2013-06-16 11:53:00
7:53 AM,73.0,70.0,90,30.00,10.0,East,3.5,-,0.00,,Overcast,90,2013-06-16 12:53:00
8:53 AM,73.9,71.1,91,30.00,10.0,East,6.9,-,N/A,,Scattered Clouds,100,2013-06-16 13:53:00
9:17 AM,73.4,69.8,88,30.03,10.0,ENE,10.4,-,N/A,,Overcast,70,2013-06-16 14:17:00
9:53 AM,77.0,72.0,84,30.01,10.0,East,9.2,-,N/A,,Mostly Cloudy,80,2013-06-16 14:53:00
10:53 AM,79.0,72.0,79,29.99,10.0,ENE,8.1,16.1,0.00,,Mostly Cloudy,60,2013-06-16 15:53:00
11:53 AM,84.0,73.9,72,29.98,10.0,ENE,6.9,-,N/A,,Clear,70,2013-06-16 16:53:00
12:53 PM,87.1,75.0,67,29.96,10.0,ENE,6.9,-,N/A,,Clear,60,2013-06-16 17:53:00
1:53 PM,88.0,75.0,65,29.95,10.0,ENE,6.9,-,N/A,,Clear,60,2013-06-16 18:53:00
2:53 PM,91.0,75.0,59,29.92,10.0,NE,6.9,-,N/A,,Clear,50,2013-06-16 19:53:00
3:42 PM,87.8,75.2,66,29.91,10.0,East,6.9,-,N/A,Thunderstorm,Scattered Clouds,80,2013-06-16 20:42:00
3:53 PM,87.1,75.0,67,29.89,10.0,East,4.6,-,N/A,Thunderstorm,Mostly Cloudy,80,2013-06-16 20:53:00
4:22 PM,78.8,73.4,83,29.94,1.8,South,13.8,-,0.05,Rain-Thunderstorm,Heavy Thunderstorms and Rain,190,2013-06-16 21:22:00
4:31 PM,77.0,73.4,89,29.94,0.5,East,9.2,-,0.32,Fog-Rain-Thunderstorm,Heavy Thunderstorms and Rain,90,2013-06-16 21:31:00
4:50 PM,77.0,73.4,89,29.96,1.5,ESE,13.8,21.9,0.88,Rain-Thunderstorm,Light Thunderstorms and Rain,120,2013-06-16 21:50:00
4:53 PM,77.0,73.9,90,29.94,2.5,SE,12.7,-,0.89,Rain-Thunderstorm,Thunderstorms and Rain,130,2013-06-16 21:53:00
5:02 PM,77.0,73.4,89,29.94,3.0,East,11.5,-,0.05,Rain-Thunderstorm,Light Thunderstorms and Rain,100,2013-06-16 22:02:00
5:19 PM,77.0,73.4,89,29.95,9.0,East,11.5,-,0.05,Rain,Light Rain,90,2013-06-16 22:19:00
5:53 PM,75.9,72.0,87,29.93,10.0,ENE,10.4,-,0.05,,Mostly Cloudy,60,2013-06-16 22:53:00
6:50 PM,75.2,71.6,89,29.95,10.0,North,12.7,-,N/A,Thunderstorm,Mostly Cloudy,10,2013-06-16 23:50:00
6:53 PM,75.0,71.1,87,29.94,10.0,NNE,12.7,-,N/A,Thunderstorm,Mostly Cloudy,20,2013-06-16 23:53:00
7:29 PM,75.2,69.8,83,29.94,10.0,South,8.1,-,N/A,,Scattered Clouds,170,2013-06-17 00:29:00
7:53 PM,75.0,70.0,84,29.95,10.0,WSW,3.5,-,0.00,Rain-Thunderstorm,Light Thunderstorms and Rain,250,2013-06-17 00:53:00
8:53 PM,73.9,71.1,91,29.99,10.0,NW,6.9,-,0.01,Rain-Thunderstorm,Light Thunderstorms and Rain,320,2013-06-17 01:53:00
9:53 PM,73.9,71.1,91,29.92,10.0,SSE,4.6,-,0.05,Rain-Thunderstorm,Light Thunderstorms and Rain,150,2013-06-17 02:53:00
10:00 PM,73.4,69.8,88,29.92,10.0,SSW,10.4,17.3,0.00,Rain,Light Rain,200,2013-06-17 03:00:00
10:21 PM,73.4,69.8,88,29.93,10.0,SSW,10.4,-,0.01,,Partly Cloudy,200,2013-06-17 03:21:00
10:53 PM,73.0,69.1,87,29.89,10.0,WSW,3.5,-,0.01,,Clear,240,2013-06-17 03:53:00
11:53 PM,72.0,69.1,91,29.93,10.0,NW,8.1,-,N/A,,Clear,320,2013-06-17 04:53:00